This demonstration page uses our WeatherBlox Daily Observations layout. Learn more.

Hourly Observations for December 5, 2017

Temp ( °F °C ) Dew Point ( °F °C ) Humidity (%) Winds ( mph kmh ) Pressure ( in mb ) Visibility ( mi km ) Precip ( " mm )
12:15 am 00:15 Clear 18 -7.8 6 -14.6 59 59 NW 6 9 30.36 1028 10 16.09344 0 0
12:35 am 00:35 Clear 15 -9.3 6 -14.7 65 65 Calm 30.36 1028 10 16.09344 0 0
12:55 am 00:55 Clear 15 -9.7 6 -14.7 67 67 WNW 6 9 30.39 1029 10 16.09344 0 0
1:15 am 01:15 Clear 14 -10.1 6 -14.3 72 72 NW 10 17 30.39 1029 10 16.09344 0 0
1:35 am 01:35 Clear 18 -7.9 9 -12.6 69 69 NW 12 19 30.36 1028 10 16.09344 0 0
1:55 am 01:55 Clear 19 -7.1 10 -12.2 67 67 NW 14 22 30.36 1028 10 16.09344 0 0
2:20 am 02:20 Clear 19 -7.1 10 -12.4 66 66 WNW 14 22 30.36 1028 10 16.09344 0 0
2:35 am 02:35 Clear 19 -7.2 10 -12.3 67 67 W 9 15 30.36 1028 10 16.09344 0 0
2:55 am 02:55 Clear 17 -8.1 9 -12.6 70 70 W 8 13 30.36 1028 10 16.09344 0 0
3:15 am 03:15 Clear 15 -9.2 9 -13 74 74 W 7 11 30.36 1028 10 16.09344 0 0
3:35 am 03:35 Clear 17 -8.3 10 -12.1 74 74 W 10 17 30.36 1028 10 16.09344 0 0
3:55 am 03:55 Partly Cloudy 18 -7.9 10 -12.3 71 71 W 8 13 30.36 1028 10 16.09344 0 0
4:15 am 04:15 Mostly Cloudy 17 -8.3 10 -12.5 72 72 W 8 13 30.36 1028 10 16.09344 0 0
4:35 am 04:35 Cloudy 20 -6.9 11 -11.6 70 70 W 8 13 30.36 1028 10 16.09344 0 0
4:55 am 04:55 Cloudy 22 -5.5 12 -11 66 66 W 10 17 30.33 1027 10 16.09344 0 0
5:15 am 05:15 Cloudy 24 -4.3 12 -11.2 59 59 W 13 20 30.33 1027 10 16.09344 0 0
5:35 am 05:35 Partly Cloudy 23 -4.8 11 -11.5 60 60 W 12 19 30.33 1027 10 16.09344 0 0
5:55 am 05:55 Clear 23 -5.2 11 -11.6 61 61 W 10 17 30.33 1027 10 16.09344 0 0
6:15 am 06:15 Clear 22 -5.6 11 -11.5 64 64 W 9 15 30.33 1027 10 16.09344 0 0
6:35 am 06:35 Partly Cloudy 21 -6 11 -11.5 65 65 W 9 15 30.36 1028 10 16.09344 0 0
6:55 am 06:55 Mostly Cloudy 23 -5 13 -10.7 65 65 W 10 17 30.36 1028 10 16.09344 0 0
7:15 am 07:15 Partly Cloudy 24 -4.7 13 -10.7 63 63 W 13 20 30.36 1028 10 16.09344 0 0
7:35 am 07:35 Clear 24 -4.4 13 -10.5 63 63 W 13 20 30.36 1028 10 16.09344 0 0
7:55 am 07:55 Sunny 26 -3.5 13 -10.4 59 59 W 16 26 30.33 1027 10 16.09344 0 0
8:15 am 08:15 Sunny 26 -3.1 13 -10.4 57 57 W 15 24 30.33 1027 10 16.09344 0 0
8:35 am 08:35 Sunny 28 -2.5 14 -10 57 57 W 13 20 30.36 1028 10 16.09344 0 0
8:55 am 08:55 Sunny 29 -1.5 14 -9.8 54 54 W 16 26 30.36 1028 10 16.09344 0 0
9:15 am 09:15 Sunny 32 -0.1 14 -9.8 48 48 W 17 28 30.33 1027 10 16.09344 0 0
9:35 am 09:35 Sunny 33 0.3 14 -9.9 47 47 W 16 26 30.33 1027 10 16.09344 0 0
9:55 am 09:55 Sunny 35 1.4 14 -9.8 43 43 W 15 24 30.33 1027 10 16.09344 0 0
10:15 am 10:15 Sunny 37 2.5 14 -10.1 39 39 W 20 31 30.33 1027 10 16.09344 0 0
10:35 am 10:35 Sunny 38 3.3 13 -10.5 36 36 WNW 20 31 30.3 1026 10 16.09344 0 0
10:55 am 10:55 Sunny 39 4 13 -10.5 34 34 W 21 33 30.3 1026 10 16.09344 0 0
11:15 am 11:15 Sunny 40 4.4 12 -10.9 32 32 WNW 23 37 30.27 1025 10 16.09344 0 0
11:35 am 11:35 Sunny 41 4.8 11 -11.4 30 30 WNW 21 33 30.27 1025 10 16.09344 0 0
11:55 am 11:55 Sunny 42 5.5 11 -11.8 28 28 WNW 21 33 30.24 1024 10 16.09344 0 0
12:15 pm 12:15 Sunny 42 5.7 10 -12.3 26 26 WNW 20 31 30.21 1023 10 16.09344 0 0
12:35 pm 12:35 Sunny 43 6.3 10 -12.5 25 25 W 17 28 30.21 1023 10 16.09344 0 0
12:55 pm 12:55 Sunny 44 6.4 8 -13.1 23 23 W 24 39 30.18 1022 10 16.09344 0 0
1:15 pm 13:15 Sunny 44 6.6 8 -13.3 23 23 WNW 23 37 30.18 1022 10 16.09344 0 0
1:35 pm 13:35 Sunny 44 6.7 10 -12.2 25 25 WNW 23 37 30.18 1022 10 16.09344 0 0
1:55 pm 13:55 Sunny 44 6.6 12 -11.3 27 27 WNW 17 28 30.15 1021 10 16.09344 0 0
2:15 pm 14:15 Sunny 44 6.9 12 -10.9 27 27 WNW 18 30 30.15 1021 10 16.09344 0 0
2:35 pm 14:35 Sunny 45 7.1 12 -10.9 27 27 W 24 39 30.15 1021 10 16.09344 0 0
2:55 pm 14:55 Sunny 46 7.7 12 -10.9 26 26 WNW 21 33 30.12 1020 10 16.09344 0 0
3:15 pm 15:15 Sunny 46 7.9 12 -10.9 25 25 W 16 26 30.12 1020 10 16.09344 0 0
3:35 pm 15:35 Mostly Cloudy 47 8.6 13 -10.5 25 25 WNW 20 31 30.12 1020 10 16.09344 0 0
3:55 pm 15:55 Cloudy 47 8.5 13 -10.5 25 25 W 20 31 30.12 1020 10 16.09344 0 0
4:15 pm 16:15 Cloudy 47 8.2 12 -11 25 25 W 22 35 30.12 1020 10 16.09344 0 0
4:35 pm 16:35 Cloudy 46 7.6 12 -11.1 25 25 W 21 33 30.15 1021 10 16.09344 0 0
4:55 pm 16:55 Cloudy 45 7 12 -11.3 26 26 W 17 28 30.15 1021 10 16.09344 0 0
5:15 pm 17:15 Partly Cloudy 42 5.5 12 -11.2 29 29 W 13 20 30.15 1021 10 16.09344 0 0
5:35 pm 17:35 Clear 38 3.3 12 -11.1 34 34 W 10 17 30.18 1022 10 16.09344 0 0
5:55 pm 17:55 Clear 38 3.1 13 -10.8 36 36 W 10 17 30.18 1022 10 16.09344 0 0
6:15 pm 18:15 Clear 35 1.8 13 -10.6 40 40 W 9 15 30.18 1022 10 16.09344 0 0
6:35 pm 18:35 Clear 32 0 13 -10.6 45 45 W 9 15 30.21 1023 10 16.09344 0 0
6:55 pm 18:55 Clear 31 -0.6 13 -10.6 47 47 W 9 15 30.21 1023 10 16.09344 0 0
7:15 pm 19:15 Clear 31 -0.5 14 -9.9 49 49 W 10 17 30.21 1023 10 16.09344 0 0
7:35 pm 19:35 Clear 32 0 15 -9.4 50 50 W 10 17 30.21 1023 10 16.09344 0 0
7:55 pm 19:55 Clear 32 0 16 -9 51 51 NW 10 17 30.24 1024 10 16.09344 0 0
8:15 pm 20:15 Partly Cloudy 34 0.9 17 -8.1 51 51 NW 7 11 30.24 1024 10 16.09344 0 0
8:35 pm 20:35 Cloudy 35 1.8 18 -8 49 49 NW 9 15 30.27 1025 10 16.09344 0 0
8:55 pm 20:55 Mostly Cloudy 35 1.8 18 -7.7 50 50 WNW 9 15 30.27 1025 10 16.09344 0 0
9:15 pm 21:15 Partly Cloudy 35 1.5 19 -7.5 52 52 W 10 17 30.27 1025 10 16.09344 0 0
9:35 pm 21:35 Clear 36 2.2 19 -7.2 50 50 W 12 19 30.24 1024 10 16.09344 0 0
9:55 pm 21:55 Clear 37 2.6 19 -7.2 49 49 WNW 10 17 30.24 1024 10 16.09344 0 0
10:15 pm 22:15 Clear 38 3.5 19 -7.1 46 46 WNW 15 24 30.24 1024 10 16.09344 0 0
10:35 pm 22:35 Clear 38 3.3 19 -7.2 46 46 NW 13 20 30.24 1024 10 16.09344 0 0
10:55 pm 22:55 Clear 38 3.5 20 -6.5 48 48 NW 16 26 30.27 1025 10 16.09344 0 0
11:15 pm 23:15 Clear 36 2 20 -6.8 53 53 NW 14 22 30.3 1026 10 16.09344 0 0
11:35 pm 23:35 Clear 34 1.2 20 -6.4 57 57 WNW 10 17 30.3 1026 10 16.09344 0 0
11:55 pm 23:55 Clear 32 -0.2 20 -6.7 62 62 NW 9 15 30.3 1026 10 16.09344 0 0

Powered by AerisWeather